{"data":{"norad_id":43257,"intl_designator":"2018-030J","name":"IRIDIUM 150","alt_names":[],"object_type":"PAYLOAD","status":"ACTIVE","operator":null,"country":"US","launch_date":"2018-03-30","launch_site_code":"AFWTR","launch_vehicle":null,"mission":null,"orbit_class":"UNKNOWN","rcs_meters":null,"size_class":null,"mass_kg":null,"dimensions":null,"purposes":["comms"],"wikipedia_slug":null,"has_3d_model":false,"image_url":null,"decayed_at":null,"tle_current":{"epoch":"2026-09-19T23:07:31.223712Z","epoch_age_seconds":61962,"freshness":"FRESH","line1":"1 43257U 18030J   26262.96355583  .00000031  00000+0  38728-5 0  9991","line2":"2 43257  86.3917 250.8197 0002229  87.1232 273.0219 14.34217526443748","mean_motion":14.34217526,"eccentricity":0.0002229,"inclination_deg":86.3917,"raan_deg":250.8197,"arg_perigee_deg":87.1232,"mean_anomaly_deg":273.0219,"bstar":3.8728e-6,"rev_number":44374,"period_min":100.40317970567,"perigee_km":776.07287051671,"apogee_km":779.26292834087,"semimajor_km":7155.8048994288,"source":"CELESTRAK","updated_at":"2026-09-20T09:00:36.330236Z"}}}